loading
DOY 205 | 2024-07-23T02:25:01Z
Showing default

OSCAR 3, 1293

Orbit data source: Space-Track

OSCAR 3, 1293 is a payload satellite owned by OSCAR (US) in LEO that was launched on Tue, 09 Mar 1965 UTC via a Thor SLV-2 Agena D launch vehicle from the Air Force Western Test Range (AFWTR). Payloads include a variety of satellites, spacecraft, and rockets equipped with specific instruments for various scientific and technological missions. These include communications satellites like Starlink; space stations such as the ISS; scientific satellites like the Hubble; Earth observation satellites from companies like Planet Labs, Umbra, and HawkEye 360; GPS; miniature CubeSats for education and research; and military/defense satellites.

Loading next visibility...
Loading greatness...
OSCAR 3 details
NORAD ID1293
COSPAR ID
1965-016F
Orbit
LEO
Last TLE update23 hours ago
Origin
Flag of USOSCAR (US)
ManufacturerOSCAR
BusOSCAR
MotorUnknown
Mass15 kg wet, 15 kg dry
Launch date (UTC)
1965-03-09 (59 years ago)
Launch vehicle
Thor SLV-2 Agena D
Launch site
Air Force Western Test Range (AFWTR)
Object type
Payload
Rocket body
Debris
Radar Cross SectionMedium (>0.1 m² and <1 m²)
Predictive object data (real-time)
Latitude-14.0802°
Longitude-57.16325°
Altitude884.887 km
Speed7.403 km/s
Apparent Right ascension22h 22m 33s
Apparent Declination-42° 45' 25"
Sunlit
Object is in full shadow
Predictive observer data (real-time)
Local Sidereal Time15:29:50
Azimuth120.033° SE
Elevation-34.332°
Doppler factor1
Orbital elements
Apogee878.714 km
Perigee853.194 km
Semi-major axis7,244.091 km
Eccentricity0.0017614
Inclination70.0745°
RAAN109.9333°
Arg. of periapsis353.0922°
True anomaly7.01913°
Mean anomaly6.9945°
Mean motion3.5202 °/min
BSTAR0.00070558
Period102.27 mins
Definitive object data (Epoch: 2024-07-22T03:19:17.162Z)
Latitude0.00003°
Longitude119.73635°
Altitude857.589 km
Speed7.431 km/s
True Right ascension07h 19m 43s
True Declination0° 00' 00"
Sunlit
Object was in daylight at TLE epoch
TLE from 23 hours ago
0 OSCAR 3
1 01293U 65016F   24204.13839308  .00001137  00000-0  70558-3 0  9990
2 01293  70.0745 109.9333 0017614 353.0922   6.9945 14.07502989 34242
Epoch: 2024-07-22T03:19Z
No data available

OSCAR 3 Visibility forecast

Observer location: 39.9160978°, -105.1181434

OSCAR 3 is not visible in the next 10 days
Span
Click to sort rows by Start time (UTC) header in descending order
Start Az.
Max El. time (UTC)
Max El. Az.
Max El.
End time (UTC)
End Az.